Temp
56 56 56 56 56 54 51 52 44 49 54 43 46 39 42 45 45 47 45 44 46 44 44 39 41 40 46 43 35 31 35 33 29 27 24 26 31 30 27 26 23 24 19 25
56 56 56 56 55 54 52 44 46 48 48 36 41 44 40 43 42 41 41 41 44 46 40 32 41 41 40 39 35 33 33 30 26 26 22 24 22 25 29 29 25 22 20 30
56 55 55 55 55 55 51 42 34 39 42 45 38 39 40 39 45 42 43 41 41 35 34 40 33 37 34 37 37 39 36 29 30 31 32 27 18 23 26 25 23 24 25 30
56 56 55 55 55 55 46 38 36 42 30 35 36 39 40 38 37 40 41 37 37 33 29 33 32 35 29 31 34 34 30 24 28 30 32 31 28 26 23 21 23 22 29 32
55 55 54 54 54 53 43 34 35 38 38 42 37 36 34 35 38 35 35 33 37 35 31 34 32 31 31 33 30 28 29 25 28 24 29 29 25 29 28 22 25 25 27 27
54 54 54 54 53 52 42 43 43 37 36 36 33 36 37 37 40 41 45 41 38 31 34 42 44 43 38 35 29 26 26 24 23 21 25 22 18 23 26 28 27 25 20 28
53 53 53 54 54 52 46 45 41 32 32 34 38 41 42 38 41 37 46 44 36 43 48 40 38 37 35 33 32 32 25 23 25 21 19 13 32 29 31 28 29 30 29 32
53 54 53 53 53 53 47 46 41 33 32 36 37 38 39 43 44 40 41 46 48 44 34 32 30 29 28 30 31 30 31 25 22 19 21 27 30 31 24 23 27 32 30 32
52 53 53 53 53 53 50 47 46 39 32 35 43 38 39 36 37 39 42 50 53 37 32 31 26 26 32 31 29 31 29 29 23 23 17 17 33 24 26 31 23 34 33 33
51 51 52 52 53 53 51 48 49 43 32 41 46 37 36 38 37 36 42 42 36 38 31 28 28 28 39 29 27 20 23 23 20 22 20 25 36 23 25 21 29 35 35 35
50 50 50 51 51 51 49 48 53 44 34 41 47 47 41 37 36 33 34 34 32 31 29 29 32 31 35 32 36 28 24 21 21 22 19 17 27 23 26 35 30 31 26 31
50 50 50 51 51 50 50 43 51 50 39 39 50 51 51 49 47 38 34 35 36 35 31 32 33 30 32 33 27 39 27 33 31 28 29 32 27 34 32 27 31 27 28 24
49 49 50 50 49 50 49 43 46 44 37 38 39 39 49 52 48 51 35 33 37 34 40 36 35 30 34 28 30 33 37 37 32 32 36 35 27 28 27 25 27 24 24 22
48 48 48 48 49 48 47 42 45 41 34 30 35 49 42 49 50 46 43 41 36 35 34 32 31 30 34 31 33 30 35 38 32 31 37 36 32 29 31 22 21 19 19 18
48 48 48 48 48 48 47 44 44 45 35 30 32 36 42 39 39 37 36 34 34 34 31 29 29 34 32 31 29 28 35 31 29 29 26 25 19 19 24 19 18 17 16 15
47 47 47 47 47 47 41 32 44 46 43 32 26 35 36 36 34 33 32 32 32 32 31 31 32 23 27 25 25 35 30 20 16 24 16 15 14 16 19 18 17 17 15 15
47 47 47 47 47 43 35 34 38 41 39 31 27 28 25 28 30 29 30 29 31 29 30 29 31 29 26 24 22 32 20 14 13 14 14 11 12 11 14 14 13 13 11 10
47 47 47 47 46 43 37 42 44 43 33 32 26 24 24 24 25 24 24 24 24 22 22 20 20 20 20 16 26 12 10 9 8 7 9 9 8 9 8 9 9 7 5 4
47 46 45 39 36 33 37 42 42 39 35 27 28 24 21 25 22 23 21 22 19 18 19 17 15 19 15 13 10 10 9 9 5 6 6 7 6 5 6 7 6 2 -0 -1
44 39 34 29 35 40 39 35 30 30 26 21 23 21 21 21 20 20 19 18 18 14 13 13 11 15 4 2 6 9 8 6 6 3 2 3 2 2 2 -1 -3 -0 -2 -5
35 31 30 33 38 33 30 26 24 23 17 15 15 14 16 19 16 18 18 16 15 10 9 9 12 10 4 1 3 5 5 3 2 3 5 5 5 -0 -4 -6 -6 -6 -6 -7
36 33 34 34 29 26 21 20 18 13 8 13 12 12 13 15 17 15 13 11 10 7 10 7 7 7 -1 0 -0 0 0 -0 -2 -0 -1 0 -1 -2 -4 -6 -7 -8 -8 -11
34 31 25 21 19 15 9 6 12 10 8 11 11 11 13 15 16 12 12 8 7 9 5 6 10 3 2 1 -2 -5 -5 -4 -5 -6 -5 -7 -9 -8 -7 -9 -10 -10 -12 -14
23 21 10 10 7 6 6 5 6 9 10 11 11 12 11 13 11 10 7 5 6 3 2 6 9 7 3 -0 -2 -5 -6 -5 -6 -7 -7 -8 -8 -9 -11 -12 -13 -14 -11 -12
11 14 4 5 8 10 10 10 9 12 13 12 12 12 11 11 8 8 5 2 3 6 7 8 5 1 -1 -4 -4 -4 -7 -8 -8 -9 -9 -9 -11 -10 -9 -12 -13 -11 -12 -11
10 7 7 9 9 8 9 9 9 13 11 12 12 10 8 7 7 5 5 4 4 5 6 5 3 -2 -3 -4 -4 -4 -5 -7 -7 -8 -9 -9 -13 -13 -8 -12 -13 -14 -12 -11
8 6 9 7 7 6 8 10 10 13 10 9 10 7 4 8 6 6 6 1 3 3 4 4 0 -2 -1 -5 -5 -7 -8 -8 -8 -9 -10 -10 -12 -18 -14 -11 -5 -11 -9 -13
MSLP
1018.72 1018.99 1019.30 1019.65 1020.04 1020.61 1021.05 1020.19 1020.24 1021.59 1021.42 1020.77 1019.22 1017.88 1017.17 1016.75 1016.29 1016.68 1016.52 1016.50 1015.73 1015.82 1016.23 1016.80 1017.03 1016.98 1017.30 1018.74 1020.30 1021.15 1021.72 1022.04 1022.45 1023.44 1024.70 1025.35 1025.01 1024.43 1024.30 1023.56 1022.04 1020.93 1019.58 1013.13
1017.84 1018.13 1018.52 1018.95 1019.38 1019.80 1019.76 1019.68 1020.14 1021.77 1021.58 1019.37 1017.80 1017.20 1017.08 1016.71 1016.45 1016.55 1016.50 1016.24 1016.11 1016.04 1016.44 1017.03 1016.52 1017.18 1018.51 1019.25 1020.13 1020.43 1021.46 1021.83 1021.89 1022.61 1024.63 1025.05 1024.67 1023.67 1023.17 1022.81 1022.22 1019.95 1018.60 1012.32
1016.78 1017.15 1017.51 1017.97 1018.52 1019.00 1019.38 1019.71 1020.00 1021.09 1020.96 1018.82 1018.17 1017.03 1016.49 1016.37 1016.17 1016.31 1016.40 1016.32 1016.80 1017.19 1017.06 1016.97 1017.21 1017.68 1019.19 1019.87 1020.43 1020.88 1021.26 1021.21 1020.13 1019.13 1019.53 1021.14 1022.72 1021.96 1022.15 1022.23 1021.00 1018.27 1014.92 1013.17
1015.60 1015.88 1016.23 1016.66 1017.24 1017.94 1019.15 1019.04 1018.20 1017.86 1018.79 1018.14 1017.63 1017.19 1016.28 1015.97 1016.03 1016.45 1016.67 1016.64 1016.53 1016.85 1017.33 1017.33 1017.49 1018.22 1019.59 1020.50 1020.80 1021.38 1021.73 1020.56 1019.97 1018.82 1019.16 1019.97 1020.21 1020.32 1020.92 1020.73 1018.24 1018.45 1012.65 1014.44
1014.24 1014.57 1014.93 1015.32 1016.00 1016.91 1018.09 1018.04 1017.74 1017.78 1017.25 1016.77 1016.77 1016.74 1015.95 1015.22 1015.23 1015.79 1015.75 1015.82 1015.52 1016.44 1016.57 1015.95 1016.38 1017.48 1018.56 1018.74 1020.46 1021.22 1021.32 1019.96 1019.50 1018.33 1018.81 1019.03 1018.56 1018.14 1018.53 1018.39 1017.98 1017.10 1015.73 1012.40
1013.57 1013.35 1013.33 1013.59 1014.19 1015.11 1015.86 1016.53 1016.73 1016.76 1016.27 1016.19 1015.98 1014.91 1014.17 1013.94 1014.54 1014.65 1014.05 1014.12 1014.85 1015.36 1014.48 1015.24 1015.12 1015.86 1016.80 1017.50 1018.46 1019.81 1020.17 1020.02 1019.52 1017.71 1018.01 1018.74 1017.34 1015.10 1015.02 1015.23 1015.30 1015.69 1015.37 1010.97
1013.43 1013.17 1013.21 1013.16 1013.06 1012.66 1013.71 1014.51 1015.45 1016.12 1015.00 1014.75 1013.50 1013.08 1013.15 1013.12 1013.06 1012.92 1012.62 1013.18 1013.94 1014.06 1014.41 1015.26 1015.68 1015.62 1015.88 1016.46 1016.84 1017.52 1018.23 1018.89 1018.68 1017.51 1018.18 1016.66 1011.78 1012.34 1012.76 1013.18 1012.90 1013.14 1012.28 1011.12
1012.89 1012.97 1013.04 1012.98 1012.95 1012.88 1012.92 1012.99 1013.53 1014.11 1013.48 1013.06 1012.33 1012.64 1012.37 1012.07 1012.01 1011.96 1011.88 1011.93 1012.40 1013.70 1015.04 1015.40 1015.02 1014.86 1015.11 1014.23 1014.63 1015.33 1015.99 1017.17 1016.86 1016.33 1014.62 1012.67 1011.71 1011.61 1012.40 1012.32 1010.81 1010.40 1011.10 1010.16
1012.55 1012.47 1012.64 1012.56 1012.57 1012.58 1012.45 1012.07 1012.51 1012.73 1012.27 1010.93 1011.25 1011.24 1011.17 1011.17 1011.14 1010.94 1010.38 1011.07 1011.80 1013.47 1014.23 1014.07 1012.93 1011.94 1011.46 1011.90 1012.70 1013.66 1014.67 1015.07 1015.37 1014.51 1012.88 1011.14 1009.41 1010.75 1011.33 1011.74 1010.14 1008.72 1008.94 1008.95
1011.89 1011.94 1012.01 1011.91 1011.93 1011.98 1012.11 1011.32 1011.56 1011.58 1011.36 1009.38 1010.06 1009.65 1009.98 1010.36 1010.34 1009.73 1009.87 1010.23 1011.69 1012.49 1012.49 1012.12 1010.96 1009.65 1008.80 1009.22 1010.14 1011.99 1013.03 1013.14 1012.42 1011.49 1010.84 1009.66 1008.45 1010.47 1011.68 1011.37 1007.43 1007.25 1007.71 1008.01
1011.48 1011.43 1011.42 1011.41 1011.35 1011.30 1011.53 1010.40 1010.63 1010.88 1009.90 1008.59 1008.69 1008.71 1009.08 1009.20 1009.30 1009.56 1009.97 1010.99 1010.85 1011.43 1010.80 1010.12 1008.73 1007.83 1006.87 1006.95 1006.52 1007.64 1008.71 1009.99 1010.06 1010.40 1009.59 1008.11 1008.70 1011.25 1010.31 1006.76 1007.19 1007.88 1008.06 1008.33
1010.74 1010.76 1010.70 1010.66 1010.73 1010.79 1010.88 1010.16 1010.24 1010.22 1010.06 1008.52 1007.98 1007.51 1007.57 1007.94 1008.21 1009.27 1009.09 1009.19 1009.95 1009.62 1009.49 1008.82 1008.25 1006.81 1006.22 1005.59 1004.88 1005.18 1005.92 1005.41 1005.35 1006.50 1005.03 1005.54 1006.57 1006.36 1006.90 1007.64 1007.96 1008.83 1009.45 1010.21
1010.11 1010.02 1009.90 1010.00 1010.02 1009.97 1010.07 1009.89 1009.89 1009.87 1009.34 1008.38 1007.75 1006.64 1006.35 1007.33 1007.43 1007.86 1007.75 1008.08 1008.66 1008.54 1008.11 1007.77 1006.95 1006.07 1005.45 1004.71 1004.36 1004.52 1004.43 1004.74 1004.51 1004.93 1004.14 1005.10 1006.23 1007.04 1008.01 1009.04 1009.44 1010.24 1010.47 1011.20
1009.39 1009.39 1009.36 1009.37 1009.30 1009.40 1009.55 1009.37 1009.35 1009.59 1008.54 1007.04 1005.50 1005.37 1005.45 1005.61 1005.99 1006.47 1006.67 1006.90 1007.89 1008.07 1007.91 1007.62 1006.91 1005.33 1004.68 1003.91 1003.84 1004.04 1004.84 1004.63 1004.84 1004.35 1004.58 1005.52 1006.13 1007.25 1007.88 1009.67 1010.64 1011.42 1012.08 1012.38
1008.56 1008.58 1008.64 1008.75 1008.77 1008.74 1008.68 1008.70 1008.32 1008.45 1008.64 1006.31 1005.78 1006.03 1005.76 1006.03 1006.40 1006.79 1007.18 1007.47 1007.51 1007.27 1006.87 1006.27 1005.77 1005.61 1005.41 1004.41 1004.65 1003.92 1004.58 1005.15 1005.87 1005.61 1006.71 1007.37 1008.30 1008.98 1009.26 1010.51 1011.58 1012.26 1012.81 1013.35
1007.92 1007.94 1007.97 1007.97 1008.05 1008.25 1008.49 1007.88 1006.39 1006.36 1007.04 1006.99 1006.01 1005.27 1005.67 1006.24 1006.68 1006.90 1007.26 1007.57 1007.63 1007.33 1006.47 1005.83 1005.47 1005.92 1005.76 1005.01 1004.32 1004.11 1004.67 1006.41 1007.70 1008.18 1009.07 1009.75 1010.63 1010.72 1011.05 1011.79 1012.56 1013.01 1013.63 1014.21
1007.10 1007.07 1007.10 1007.17 1007.31 1007.58 1007.63 1006.89 1006.48 1006.73 1007.32 1005.75 1005.41 1005.55 1006.47 1006.93 1007.07 1007.40 1007.56 1008.01 1007.75 1007.74 1007.12 1006.28 1006.39 1006.55 1006.99 1006.33 1005.57 1005.86 1007.55 1008.63 1009.95 1010.68 1010.95 1011.66 1011.98 1012.58 1013.21 1013.55 1014.04 1014.52 1015.24 1015.99
1006.23 1006.19 1006.24 1006.35 1006.64 1006.89 1006.77 1006.25 1006.09 1006.31 1006.90 1006.55 1004.90 1005.40 1007.13 1007.72 1007.39 1007.77 1008.36 1008.16 1008.34 1008.42 1008.04 1007.97 1007.99 1008.36 1008.43 1007.86 1006.84 1008.59 1010.08 1011.04 1012.03 1012.64 1012.75 1012.83 1013.59 1014.48 1015.02 1015.32 1015.53 1016.29 1017.10 1018.20
1005.71 1005.77 1005.95 1006.67 1006.76 1006.36 1005.91 1006.08 1006.07 1006.12 1006.62 1006.28 1005.79 1005.97 1007.24 1007.98 1008.18 1008.39 1008.82 1008.80 1008.63 1009.36 1008.94 1009.38 1009.90 1009.11 1009.44 1009.12 1009.83 1010.51 1011.52 1012.31 1013.43 1014.15 1014.40 1014.86 1015.18 1015.79 1016.28 1016.73 1017.54 1017.89 1018.79 1019.44
1005.55 1006.30 1006.50 1006.43 1006.39 1006.39 1006.40 1005.95 1006.16 1006.14 1006.77 1007.41 1007.27 1007.70 1007.98 1008.41 1008.76 1008.64 1009.03 1009.19 1008.89 1009.32 1010.00 1010.54 1010.42 1009.95 1010.88 1011.93 1012.30 1012.65 1013.46 1014.25 1014.77 1015.21 1015.84 1016.21 1016.56 1017.09 1017.73 1018.40 1018.97 1019.47 1020.17 1021.12
1005.72 1006.10 1006.29 1006.72 1006.68 1006.75 1006.82 1006.58 1006.66 1006.98 1008.07 1009.17 1009.46 1009.65 1009.40 1009.87 1009.65 1009.06 1009.40 1008.92 1009.24 1009.65 1010.80 1011.11 1010.57 1010.70 1012.29 1013.65 1014.32 1014.85 1015.32 1015.79 1016.24 1016.58 1016.54 1016.82 1017.10 1018.04 1019.13 1019.78 1020.12 1020.80 1021.71 1022.21
1005.35 1006.07 1006.74 1006.98 1007.30 1007.55 1007.79 1007.59 1008.41 1009.19 1010.46 1010.92 1010.92 1011.13 1010.88 1010.67 1010.64 1010.04 1010.29 1009.75 1010.04 1010.27 1011.16 1011.27 1010.76 1012.04 1013.80 1014.88 1015.71 1016.39 1016.90 1017.31 1017.71 1017.86 1017.94 1018.15 1018.65 1019.37 1019.96 1020.63 1021.36 1022.03 1022.65 1023.11
1006.01 1006.50 1007.52 1008.34 1009.16 1009.44 1010.32 1010.54 1010.63 1011.35 1012.48 1012.45 1012.15 1011.73 1011.60 1011.17 1011.04 1010.77 1010.56 1010.43 1010.68 1011.39 1011.20 1010.68 1011.13 1013.02 1014.63 1015.78 1016.86 1017.73 1018.36 1018.72 1018.93 1019.16 1019.34 1019.75 1020.36 1020.73 1021.17 1021.78 1022.32 1022.84 1023.20 1023.49
1007.67 1008.63 1010.39 1011.62 1012.44 1013.41 1013.80 1014.06 1014.13 1014.16 1013.86 1013.42 1012.99 1012.30 1011.96 1011.55 1011.16 1011.12 1010.80 1011.56 1011.56 1011.19 1011.15 1011.13 1012.40 1013.68 1015.18 1016.59 1017.66 1018.32 1018.88 1019.41 1019.85 1020.19 1020.57 1020.93 1021.28 1021.73 1022.09 1022.44 1022.91 1023.14 1023.47 1023.62
1011.36 1011.99 1013.83 1014.81 1015.47 1015.53 1015.50 1015.41 1015.16 1014.81 1014.50 1013.87 1013.07 1012.61 1012.33 1011.63 1011.48 1011.52 1011.72 1011.90 1011.56 1011.45 1011.55 1012.70 1014.06 1015.22 1016.32 1017.45 1018.33 1018.82 1019.46 1020.02 1020.49 1020.92 1021.21 1021.57 1021.87 1022.12 1022.40 1022.74 1023.10 1023.33 1023.39 1023.23
1014.77 1016.00 1016.34 1016.55 1016.22 1016.14 1015.99 1015.82 1015.45 1015.30 1014.83 1014.06 1013.56 1012.71 1012.10 1011.96 1012.04 1012.01 1011.77 1012.15 1012.21 1013.07 1013.82 1014.62 1015.44 1016.29 1017.25 1017.97 1018.64 1019.20 1019.68 1020.20 1020.59 1020.99 1021.33 1021.76 1022.24 1022.49 1022.54 1022.76 1022.97 1023.06 1023.02 1022.86
1017.06 1018.09 1018.18 1018.12 1017.88 1017.50 1017.08 1016.76 1016.24 1016.01 1015.17 1014.12 1013.60 1013.09 1013.02 1013.11 1012.78 1012.79 1013.45 1014.38 1014.88 1015.25 1015.36 1015.84 1016.59 1017.18 1017.72 1018.37 1018.86 1019.40 1019.84 1020.19 1020.49 1020.91 1021.40 1021.76 1022.14 1022.66 1022.56 1022.36 1022.10 1022.31 1022.25 1022.33
Wind_Speed
16 16 16 15 13 10 7 3 5 4 7 8 6 10 6 2 6 7 6 5 7 9 9 9 12 11 9 13 13 12 9 4 8 11 4 2 10 9 13 7 9 6 5 15
17 18 18 18 18 19 4 3 3 4 5 8 13 9 6 7 8 8 8 9 9 6 7 5 13 6 5 13 12 12 11 7 4 6 3 3 8 11 14 6 0 15 10 12
19 19 19 20 22 23 4 4 5 4 6 9 7 11 13 12 8 6 6 3 4 4 6 10 3 7 4 9 9 4 9 7 10 16 4 7 8 13 21 16 10 11 27 29
22 23 23 24 24 24 6 3 6 6 8 12 17 9 5 11 8 7 8 5 13 8 6 5 10 10 4 6 9 7 9 10 16 21 19 13 13 12 20 27 27 17 32 22
24 24 24 25 24 24 6 4 4 3 4 9 15 18 12 20 12 10 8 12 12 13 13 14 6 8 10 9 13 11 8 7 6 18 16 18 23 20 22 28 26 28 29 40
10 14 23 26 29 22 4 5 3 4 7 8 9 10 17 13 10 14 22 16 13 15 26 18 18 14 8 7 15 16 11 8 6 12 5 1 16 25 28 27 20 25 25 38
12 9 10 12 19 31 8 5 4 4 6 12 17 17 18 22 20 19 14 17 12 6 3 4 3 9 12 13 16 16 11 12 6 6 6 11 15 3 11 22 25 28 23 26
13 13 12 12 11 9 10 4 6 6 7 11 17 18 20 19 17 23 21 19 13 9 6 3 5 5 4 13 24 21 18 12 6 7 14 14 21 9 9 11 18 22 28 32
16 16 16 14 12 11 6 7 4 3 4 14 13 13 22 19 16 18 23 18 12 8 5 5 8 10 10 7 5 5 17 15 10 11 10 13 21 5 4 6 13 13 24 28
17 17 17 17 17 16 9 5 10 5 4 14 16 7 9 5 10 8 7 7 6 13 9 11 12 12 7 12 11 8 7 11 21 21 17 8 14 11 7 7 14 4 11 19
18 16 16 17 17 17 11 8 10 10 4 15 15 15 15 4 6 9 3 3 2 6 11 8 10 10 15 15 23 12 17 13 11 13 11 16 11 9 13 11 3 2 5 6
19 19 19 20 19 18 16 11 8 8 8 8 13 13 19 25 18 8 8 3 5 7 6 5 5 6 4 16 18 19 15 17 13 15 10 3 17 7 15 2 4 5 5 4
20 21 22 21 21 23 19 10 8 6 8 12 15 21 22 13 15 12 9 5 6 5 8 8 10 17 7 9 11 21 13 5 11 15 17 13 11 12 4 4 2 3 3 5
17 19 18 18 19 15 17 9 7 6 4 6 10 8 7 11 15 22 17 19 4 5 4 6 6 6 5 8 9 11 10 11 12 16 14 9 7 9 8 7 5 6 5 4
18 17 17 17 16 16 11 7 8 10 9 5 4 6 3 4 4 6 3 5 10 9 8 7 12 11 9 5 4 9 6 11 14 16 1 3 2 3 6 9 9 8 8 7
17 17 17 17 17 16 5 4 6 10 11 7 8 2 7 4 3 5 3 2 2 4 4 5 6 2 3 5 10 11 2 5 3 4 5 6 6 6 5 7 8 9 9 9
17 17 17 17 16 7 4 4 2 4 7 5 5 5 3 2 3 2 3 1 3 3 4 5 7 4 2 3 7 6 3 5 4 6 7 5 2 4 5 9 11 14 13 11
15 16 17 15 13 10 7 8 14 9 2 5 4 2 4 1 3 3 1 3 2 2 2 0 1 2 1 6 8 7 8 7 5 4 5 7 10 9 8 8 10 11 10 8
14 11 4 3 2 3 2 3 6 3 5 4 4 3 3 1 2 2 2 2 4 2 3 2 3 3 8 1 5 2 5 0 8 7 8 7 9 9 8 8 7 9 7 7
2 3 2 3 1 5 7 1 2 3 2 3 2 3 2 3 2 3 2 2 2 4 3 1 4 5 5 4 4 4 6 8 9 10 6 7 7 7 6 6 4 5 5 5
2 3 3 2 6 2 2 4 3 2 2 5 4 5 2 4 3 1 2 2 2 3 3 3 3 4 4 4 5 6 8 7 6 4 6 3 7 9 7 6 5 6 4 3
3 5 3 1 0 2 4 1 2 5 4 4 4 3 3 2 3 2 0 2 1 2 1 3 4 3 3 4 5 6 6 6 7 6 8 9 9 7 6 6 5 4 4 3
2 2 4 4 5 1 6 8 3 3 7 6 5 2 2 1 0 0 2 4 0 1 3 3 3 3 4 5 5 4 3 5 5 6 7 8 6 5 3 5 3 4 3 2
5 4 6 7 5 5 4 5 5 3 5 6 6 4 3 1 2 2 4 2 2 2 3 1 3 3 5 5 5 5 5 4 5 5 5 5 5 4 3 4 3 2 2 3
7 6 6 6 2 2 4 5 4 2 5 6 4 3 3 1 1 2 1 2 3 2 4 4 4 3 4 5 5 4 5 4 5 4 4 4 3 2 3 3 3 3 2 3
5 8 2 5 2 5 4 5 4 5 7 4 3 3 3 0 2 3 1 4 3 4 4 4 4 1 2 3 5 5 5 6 5 4 3 3 3 3 1 2 3 4 3 4
5 4 3 3 2 4 5 7 6 7 6 3 3 4 5 3 3 2 5 6 7 8 7 4 3 3 1 3 4 4 5 6 5 4 3 2 3 2 2 4 4 4 4 4
Wind_Direction
228 224 222 214 203 169 190 236 228 136 192 193 201 223 206 277 201 205 241 278 252 219 208 212 224 224 222 143 148 172 196 217 219 214 113 9 241 226 184 214 190 235 290 268
227 222 217 209 197 180 168 208 130 161 232 224 219 214 252 237 200 204 197 220 224 218 214 217 223 221 59 155 172 164 169 196 218 196 181 189 222 208 220 259 334 236 242 259
227 220 215 210 203 195 211 166 174 157 216 263 273 230 238 232 207 236 207 209 137 166 217 236 285 206 149 189 205 168 160 202 230 254 326 114 204 209 203 198 226 244 233 267
231 223 215 212 204 197 162 207 221 184 186 227 222 207 252 235 223 218 199 216 215 175 206 221 232 218 171 196 215 189 174 242 227 256 275 269 252 225 199 210 223 222 265 249
230 228 223 217 206 192 191 184 185 191 288 219 207 213 213 233 221 174 215 226 198 191 219 208 211 195 202 211 186 187 198 251 245 269 246 245 256 250 230 219 228 241 256 269
311 267 233 218 206 180 176 177 187 158 189 191 190 200 218 230 215 238 241 226 231 200 228 231 240 232 207 203 172 189 186 210 188 257 93 164 267 239 234 232 222 219 237 244
294 307 308 290 241 194 178 179 132 176 220 208 211 224 214 227 219 229 234 223 224 239 59 77 312 252 247 210 207 180 188 190 199 249 139 230 254 145 212 224 233 214 235 253
278 279 276 270 273 278 218 169 169 173 230 216 229 240 239 242 234 236 242 240 213 143 111 206 234 197 250 231 229 211 199 181 209 227 220 273 300 218 178 179 247 221 224 242
272 270 273 269 270 273 249 205 215 161 186 233 244 233 227 238 240 248 244 241 229 128 181 202 221 228 223 202 221 214 210 214 211 213 230 230 244 125 133 140 253 178 208 229
278 275 273 269 266 270 266 256 201 221 231 260 251 231 244 194 217 246 238 201 188 176 202 223 226 235 233 222 221 164 194 203 219 232 244 243 261 154 152 236 262 152 196 217
282 278 278 278 273 265 256 268 245 237 249 268 237 238 240 226 217 220 135 119 193 186 215 221 224 233 234 226 234 206 189 182 211 233 248 249 130 125 201 230 98 212 196 191
271 271 270 266 267 267 259 259 253 253 244 272 292 257 245 249 242 220 186 232 196 199 211 230 260 241 241 248 245 226 231 213 220 198 215 148 189 222 222 90 155 185 199 160
282 277 273 272 271 269 255 257 263 255 253 263 257 246 248 237 242 242 248 190 215 200 239 253 248 248 198 231 240 256 251 252 233 257 241 232 197 226 198 191 197 140 121 156
278 278 275 279 274 261 261 262 265 257 269 250 255 237 232 241 239 226 239 242 198 218 169 240 255 265 210 246 259 242 245 233 233 252 268 261 229 211 189 165 133 139 129 137
273 270 267 269 271 275 276 263 258 237 242 282 277 336 260 98 196 230 222 237 244 237 242 224 248 266 265 268 288 237 203 237 253 262 150 312 73 10 105 155 174 157 145 136
270 269 268 263 263 265 281 272 234 230 213 247 248 311 211 196 181 187 198 188 224 248 254 245 223 98 210 247 263 272 221 65 14 300 93 79 111 81 103 136 140 135 131 124
272 269 267 262 261 246 217 240 221 313 328 231 224 217 103 70 129 101 170 164 248 258 261 231 261 244 278 268 251 252 112 97 81 92 120 115 84 95 94 104 91 90 84 88
281 279 262 260 256 275 248 245 284 290 178 290 263 146 164 2 151 179 16 180 181 180 324 159 248 3 220 255 267 68 98 106 97 61 46 67 103 101 100 105 112 111 105 106
286 292 305 45 233 212 236 243 276 270 238 262 275 315 75 246 78 54 122 297 214 66 243 174 244 182 224 321 5 113 142 81 129 95 92 107 112 115 106 108 105 110 108 96
269 117 163 225 164 352 330 198 240 219 97 9 311 310 148 301 178 166 190 195 247 225 89 333 224 255 81 31 356 74 105 122 131 117 126 136 131 131 117 91 68 88 98 105
131 171 210 59 355 352 246 247 232 28 121 6 17 20 350 43 261 268 331 223 166 225 105 251 222 258 68 56 60 75 81 76 60 56 66 77 137 140 135 122 91 92 112 99
109 105 95 139 40 233 255 290 73 27 36 9 347 1 10 13 309 278 231 270 208 226 124 236 248 72 102 129 103 83 76 88 79 66 86 89 94 104 107 110 122 120 111 130
65 65 67 344 12 114 10 348 37 27 352 7 343 337 331 250 274 266 248 239 250 256 220 244 11 89 153 142 134 109 61 88 98 89 82 88 88 74 82 115 92 132 143 143
57 16 45 17 34 41 8 330 326 339 309 329 322 293 329 331 241 325 249 63 265 253 246 260 43 58 153 145 152 144 149 137 124 116 116 120 125 116 109 94 116 144 195 179
52 22 46 46 354 354 322 319 280 299 303 310 297 251 272 295 249 19 133 210 242 251 358 21 12 14 144 158 169 165 163 162 158 157 155 142 128 133 137 149 180 207 233 252
53 41 28 353 301 10 357 347 335 353 323 287 233 272 257 120 328 237 319 298 18 29 348 345 342 17 175 168 178 181 171 177 165 162 157 152 175 189 107 144 214 220 231 254
48 42 10 354 285 309 326 325 324 334 297 335 309 324 8 291 277 47 19 15 333 327 319 330 345 321 271 182 179 174 174 177 173 156 178 174 125 103 214 243 214 211 221 218